FW7512 Weather Reports


time (UTC)temp
C
wind
direction
speed
KPH
gust
KPH
rain 1hr
cm
rain 24hr
cm
rain mn
cm
humidity
%
barometer
mb
20260508220545 20 172 0.0 4.8 0.00 0.00 0.00 46 1009.1
20260508220003 20 257 0.0 1.6 0.00 0.00 0.00 49 1009.0
20260508215557 20 267 0.0 1.6 0.00 0.00 0.00 50 1009.0
20260508215052 20 129 0.0 4.8 0.00 0.00 0.00 49 1009.0
20260508214516 20 27 0.0 1.6 0.00 0.00 0.00 49 1009.1
20260508214002 20 73 0.0 3.2 0.00 0.00 0.00 47 1009.1
20260508213556 20 352 0.0 3.2 0.00 0.00 0.00 48 1009.1
20260508213015 20 42 0.0 1.6 0.00 0.00 0.00 47 1009.1
20260508212508 20 312 0.0 3.2 0.00 0.00 0.00 49 1009.1
20260508212102 21 334 0.0 3.2 0.00 0.00 0.00 47 1009.3
20260508211529 21 229 0.0 4.8 0.00 0.00 0.00 46 1009.2
20260508211021 21 84 0.0 4.8 0.00 0.00 0.00 46 1009.5
20260508210512 20 60 0.0 4.8 0.00 0.00 0.00 45 1009.6
20260508210032 20 136 0.0 1.6 0.00 0.00 0.00 47 1009.9
20260508205518 20 116 0.0 3.2 0.00 0.00 0.00 47 1009.9
20260508205019 20 305 0.0 3.2 0.00 0.00 0.00 46 1009.9
20260508204532 21 294 0.0 4.8 0.00 0.00 0.00 46 1010.2
20260508204023 21 121 1.6 6.4 0.00 0.00 0.00 46 1010.2
20260508203514 21 262 0.0 4.8 0.00 0.00 0.00 47 1010.1
20260508203040 21 11 0.0 1.6 0.00 0.00 0.00 52 1010.1
20260508202631 21 147 0.0 1.6 0.00 0.00 0.00 50 1010.2
20260508202026 21 293 0.0 3.2 0.00 0.00 0.00 46 1010.2
20260508201556 21 110 0.0 4.8 0.00 0.00 0.00 46 1010.3
20260508201036 21 150 0.0 4.8 0.00 0.00 0.00 43 1010.4
20260508200529 21 309 0.0 6.4 0.00 0.00 0.00 44 1010.4
20260508200049 21 69 1.6 6.4 0.00 0.00 0.00 44 1010.5
20260508195539 21 143 0.0 3.2 0.00 0.00 0.00 45 1010.6
20260508195035 21 139 0.0 4.8 0.00 0.00 0.00 45 1010.6
20260508194552 22 135 0.0 4.8 0.00 0.00 0.00 44 1010.5
20260508194043 22 103 0.0 6.4 0.00 0.00 0.00 42 1010.6
20260508193533 22 134 0.0 8.0 0.00 0.00 0.00 43 1010.6
20260508193054 22 339 0.0 8.0 0.00 0.00 0.00 42 1010.7
20260508192540 23 60 0.0 9.7 0.00 0.00 0.00 40 1010.7
20260508192034 24 298 1.6 9.7 0.00 0.00 0.00 38 1010.7
20260508191553 24 306 0.0 6.4 0.00 0.00 0.00 42 1010.7
20260508191041 24 138 1.6 6.4 0.00 0.00 0.00 38 1010.8
20260508190531 23 131 0.0 9.7 0.00 0.00 0.00 43 1011.0
20260508190058 23 300 1.6 11.3 0.00 0.00 0.00 43 1011.1
20260508185553 23 140 1.6 11.3 0.00 0.00 0.00 37 1011.0
20260508185039 23 54 1.6 12.9 0.00 0.00 0.00 43 1011.1
20260508184600 23 256 0.0 12.9 0.00 0.00 0.00 42 1011.2
20260508184051 23 267 1.6 6.4 0.00 0.00 0.00 42 1011.3
20260508183539 23 266 1.6 8.0 0.00 0.00 0.00 44 1011.4
20260508183100 23 302 1.6 8.0 0.00 0.00 0.00 42 1011.4
20260508182550 23 299 1.6 8.0 0.00 0.00 0.00 46 1011.6
20260508182038 23 300 1.6 8.0 0.00 0.00 0.00 38 1011.7
20260508181505 23 326 1.6 6.4 0.00 0.00 0.00 41 1011.8
20260508181058 23 332 1.6 6.4 0.00 0.00 0.00 45 1011.8
20260508180550 23 333 1.6 8.0 0.00 0.00 0.00 46 1012.0
20260508180004 22 134 0.0 11.3 0.00 0.00 0.00 43 1012.0
20260508175555 21 309 0.0 11.3 0.00 0.00 0.00 43 1012.0
20260508175045 22 68 0.0 6.4 0.00 0.00 0.00 44 1012.2
20260508174502 22 105 0.0 4.8 0.00 0.00 0.00 47 1012.4
20260508174056 22 283 0.0 4.8 0.00 0.00 0.00 45 1012.4
20260508173543 21 168 0.0 4.8 0.00 0.00 0.00 46 1012.6
20260508173014 21 281 0.0 11.3 0.00 0.00 0.00 46 1012.7
20260508172504 21 315 1.6 9.7 0.00 0.00 0.00 47 1013.0
20260508172058 21 311 0.0 8.0 0.00 0.00 0.00 44 1013.0
20260508171524 22 224 0.0 8.0 0.00 0.00 0.00 44 1012.9
20260508171005 23 131 1.6 8.0 0.00 0.00 0.00 42 1013.1
20260508170557 23 200 0.0 8.0 0.00 0.00 0.00 46 1013.2
20260508170017 22 78 0.0 4.8 0.00 0.00 0.00 47 1013.4
20260508165505 22 65 0.0 6.4 0.00 0.00 0.00 48 1013.4
20260508165057 22 272 1.6 8.0 0.00 0.00 0.00 43 1013.5
20260508164527 22 267 1.6 9.7 0.00 0.00 0.00 46 1013.7
20260508164021 22 297 1.6 11.3 0.00 0.00 0.00 45 1013.7
20260508163513 21 39 1.6 11.3 0.00 0.00 0.00 44 1013.6
20260508163034 22 48 0.0 6.4 0.00 0.00 0.00 44 1014.0
20260508162522 22 244 0.0 8.0 0.00 0.00 0.00 46 1013.9
20260508162013 22 141 1.6 6.4 0.00 0.00 0.00 47 1013.9
20260508161534 22 298 0.0 12.9 0.00 0.00 0.00 48 1014.0
20260508161023 21 128 1.6 12.9 0.00 0.00 0.00 49 1014.0
20260508160512 21 302 0.0 11.3 0.00 0.00 0.00 49 1014.1
20260508160034 21 308 0.0 6.4 0.00 0.00 0.00 49 1014.1
20260508155523 21 302 0.0 6.4 0.00 0.00 0.00 49 1014.1
20260508155014 21 27 0.0 8.0 0.00 0.00 0.00 53 1014.2
20260508154532 20 158 0.0 11.3 0.00 0.00 0.00 48 1014.3
20260508154024 20 70 0.0 11.3 0.00 0.00 0.00 51 1014.4
20260508153516 21 319 3.2 11.3 0.00 0.00 0.00 46 1014.5
20260508153035 20 132 0.0 6.4 0.00 0.00 0.00 51 1014.5
20260508152525 20 49 0.0 6.4 0.00 0.00 0.00 51 1014.6
20260508152017 20 316 0.0 8.0 0.00 0.00 0.00 48 1014.6
20260508151542 20 321 0.0 8.0 0.00 0.00 0.00 50 1014.5
20260508151028 20 269 0.0 6.4 0.00 0.00 0.00 49 1014.6
20260508150521 20 134 0.0 6.4 0.00 0.00 0.00 52 1014.6
20260508150036 19 207 0.0 6.4 0.00 0.00 0.00 48 1014.7
20260508145530 19 117 0.0 4.8 0.00 0.00 0.00 50 1014.7
20260508145018 19 271 0.0 4.8 0.00 0.00 0.00 50 1014.7
20260508144544 19 304 0.0 4.8 0.00 0.00 0.00 52 1014.7
20260508144028 18 148 0.0 4.8 0.00 0.00 0.00 52 1014.7
20260508143522 18 147 0.0 4.8 0.00 0.00 0.00 53 1014.8
20260508143037 18 134 0.0 6.4 0.00 0.00 0.00 52 1014.9
20260508142528 17 328 1.6 6.4 0.00 0.00 0.00 53 1015.0
20260508142019 17 146 1.6 6.4 0.00 0.00 0.00 53 1015.0
20260508141606 17 67 0.0 4.8 0.00 0.00 0.00 54 1015.1
20260508141029 17 107 0.0 4.8 0.00 0.00 0.00 56 1015.2
20260508140518 17 317 0.0 9.7 0.00 0.00 0.00 54 1015.1
20260508140039 17 122 1.6 6.4 0.00 0.00 0.00 57 1015.1
20260508135527 17 56 0.0 4.8 0.00 0.00 0.00 58 1015.1
20260508135016 16 155 0.0 4.8 0.00 0.00 0.00 59 1015.2
20260508134549 16 285 0.0 4.8 0.00 0.00 0.00 61 1015.3
20260508134023 16 165 0.0 4.8 0.00 0.00 0.00 59 1015.4
20260508133517 16 110 0.0 4.8 0.00 0.00 0.00 60 1015.3
20260508133044 15 240 0.0 3.2 0.00 0.00 0.00 60 1015.4
20260508132533 15 229 0.0 1.6 0.00 0.00 0.00 62 1015.3
20260508132024 14 121 0.0 6.4 0.00 0.00 0.00 65 1015.5
20260508131540 13 314 0.0 6.4 0.00 0.00 0.00 66 1015.5
20260508131032 13 136 0.0 3.2 0.00 0.00 0.00 69 1015.4
20260508130521 13 140 0.0 1.6 0.00 0.00 0.00 68 1015.4
20260508130039 13 248 0.0 1.6 0.00 0.00 0.00 69 1015.4
20260508125528 12 120 0.0 1.6 0.00 0.00 0.00 73 1015.3
20260508125019 12 284 0.0 1.6 0.00 0.00 0.00 75 1015.3
20260508124543 11 131 0.0 0.0 0.00 0.00 0.00 80 1015.4
20260508124028 10 131 0.0 1.6 0.00 0.00 0.00 81 1015.4
20260508123517 10 131 0.0 3.2 0.00 0.00 0.00 82 1015.4
20260508123045 9 137 0.0 3.2 0.00 0.00 0.00 84 1015.4
20260508122522 8 129 0.0 3.2 0.00 0.00 0.00 87 1015.3
20260508122012 8 138 0.0 1.6 0.00 0.00 0.00 88 1015.4
20260508121534 8 157 0.0 0.0 0.00 0.00 0.00 88 1015.4
20260508121024 7 157 0.0 0.0 0.00 0.00 0.00 89 1015.4
20260508120514 7 157 0.0 0.0 0.00 0.00 0.00 90 1015.5
20260508120032 -17 0.0 0.0 0.00 0.00 0.00 1015.5
20260508115525 -17 0.0 0.0 0.00 0.00 0.00 1015.3
20260508115017 -17 0.0 0.0 0.00 0.00 0.00 1015.3
20260508114539 -17 0.0 0.0 0.00 0.00 0.00 1015.2
20260508114029 -17 0.0 0.0 0.00 0.00 0.00 1015.2
20260508113518 -17 0.0 0.0 0.00 0.00 0.00 1015.0
20260508113050 -17 0.0 0.0 0.00 0.00 0.00 1015.2
20260508112534 -17 0.0 0.0 0.00 0.00 0.00 1015.0
20260508112027 -17 0.0 0.0 0.00 0.00 0.00 1015.1
20260508111547 -17 0.0 0.0 0.00 0.00 0.00 1015.0
20260508111037 -17 0.0 0.0 0.00 0.00 0.00 1014.9
20260508110527 -17 0.0 0.0 0.00 0.00 0.00 1014.9
20260508110038 -17 0.0 0.0 0.00 0.00 0.00 1014.8
20260508105530 -17 264 0.0 0.0 0.00 0.00 0.00 1014.9
20260508105020 -17 264 0.0 0.0 0.00 0.00 0.00 1015.0
20260508104540 -17 264 0.0 0.0 0.00 0.00 0.00 1015.0
20260508104035 5 262 0.0 0.0 0.00 0.00 0.00 95 1014.9
20260508103527 5 262 0.0 0.0 0.00 0.00 0.00 95 1014.8
20260508103049 5 262 0.0 0.0 0.00 0.00 0.00 95 1014.9
20260508102541 5 262 0.0 0.0 0.00 0.00 0.00 95 1014.8
20260508102036 5 262 0.0 0.0 0.00 0.00 0.00 95 1014.9
20260508101555 5 262 0.0 0.0 0.00 0.00 0.00 95 1014.9
20260508101046 5 262 0.0 0.0 0.00 0.00 0.00 95 1014.8
20260508100539 5 262 0.0 0.0 0.00 0.00 0.00 95 1014.8
20260508095553 5 262 0.0 0.0 0.00 0.00 0.00 95 1014.8
20260508095045 4 262 0.0 0.0 0.00 0.00 0.00 95 1014.9
20260508094509 4 262 0.0 0.0 0.00 0.00 0.00 95 1014.9
20260508094100 4 262 0.0 0.0 0.00 0.00 0.00 95 1015.0
20260508093554 4 262 0.0 0.0 0.00 0.00 0.00 95 1014.9
20260508093016 4 262 0.0 0.0 0.00 0.00 0.00 95 1014.9
20260508092508 4 262 0.0 0.0 0.00 0.00 0.00 95 1014.8
20260508092100 3 262 0.0 0.0 0.00 0.00 0.00 95 1014.8
20260508091532 3 262 0.0 0.0 0.00 0.00 0.00 95 1014.9
20260508091015 3 262 0.0 0.0 0.00 0.00 0.00 95 1014.9
20260508090507 3 262 0.0 0.0 0.00 0.00 0.00 95 1015.0
20260508090037 3 262 0.0 0.0 0.00 0.00 0.00 95 1014.9
20260508085517 3 262 0.0 0.0 0.00 0.00 0.00 95 1014.8
20260508085012 3 262 0.0 0.0 0.00 0.00 0.00 95 1014.8
20260508084533 3 262 0.0 0.0 0.00 0.00 0.00 95 1014.7
20260508084027 3 262 0.0 0.0 0.00 0.00 0.00 94 1014.7
20260508083517 3 262 0.0 0.0 0.00 0.00 0.00 94 1014.8
20260508083048 3 262 0.0 0.0 0.00 0.00 0.00 94 1014.8
20260508082531 3 262 0.0 0.0 0.00 0.00 0.00 94 1014.8
20260508082022 3 262 0.0 0.0 0.00 0.00 0.00 94 1014.6
20260508081541 3 262 0.0 0.0 0.00 0.00 0.00 94 1014.6
20260508081033 3 262 0.0 0.0 0.00 0.00 0.00 94 1014.6
20260508080525 3 262 0.0 0.0 0.00 0.00 0.00 94 1014.7
20260508080049 3 262 0.0 0.0 0.00 0.00 0.00 94 1014.8
20260508075537 3 262 0.0 0.0 0.00 0.00 0.00 94 1014.7
20260508075028 3 262 0.0 0.0 0.00 0.00 0.00 94 1014.7
20260508074552 3 262 0.0 0.0 0.00 0.00 0.00 94 1014.7
20260508074041 3 262 0.0 0.0 0.00 0.00 0.00 94 1014.6
20260508073536 3 262 0.0 0.0 0.00 0.00 0.00 94 1014.6
20260508073053 3 262 0.0 0.0 0.00 0.00 0.00 94 1014.6
20260508072542 3 262 0.0 0.0 0.00 0.00 0.00 94 1014.6
20260508072035 3 262 0.0 0.0 0.00 0.00 0.00 94 1014.7
20260508071511 4 262 0.0 0.0 0.00 0.00 0.00 94 1014.7
20260508071058 4 262 0.0 0.0 0.00 0.00 0.00 94 1014.7
20260508070553 3 262 0.0 0.0 0.00 0.00 0.00 94 1014.7
20260508070018 3 262 0.0 0.0 0.00 0.00 0.00 94 1014.7
20260508065509 3 262 0.0 0.0 0.00 0.00 0.00 94 1014.8
20260508065102 3 262 0.0 0.0 0.00 0.00 0.00 94 1014.9
20260508064520 4 262 0.0 0.0 0.00 0.00 0.00 94 1015.1
20260508064012 4 262 0.0 0.0 0.00 0.00 0.00 94 1015.1
20260508063504 4 262 0.0 0.0 0.00 0.00 0.00 94 1015.2
20260508063022 4 262 0.0 0.0 0.00 0.00 0.00 93 1015.1
20260508062514 4 262 0.0 0.0 0.00 0.00 0.00 93 1015.2
20260508062004 4 262 0.0 0.0 0.00 0.00 0.00 93 1015.2
20260508061527 4 262 0.0 0.0 0.00 0.00 0.00 93 1015.2
20260508061020 4 262 0.0 0.0 0.00 0.00 0.00 93 1015.2
20260508060515 4 262 0.0 0.0 0.00 0.00 0.00 93 1015.3
20260508060036 4 262 0.0 0.0 0.00 0.00 0.00 93 1015.3
20260508055531 4 262 0.0 0.0 0.00 0.00 0.00 93 1015.3
20260508055020 4 262 0.0 0.0 0.00 0.00 0.00 93 1015.3
20260508054540 4 262 0.0 0.0 0.00 0.00 0.00 93 1015.4
20260508054031 4 262 0.0 0.0 0.00 0.00 0.00 92 1015.4
20260508053522 4 262 0.0 0.0 0.00 0.00 0.00 92 1015.4
20260508053013 4 262 0.0 0.0 0.00 0.00 0.00 92 1015.4
20260508052505 5 262 0.0 0.0 0.00 0.00 0.00 92 1015.3
20260508052057 5 262 0.0 0.0 0.00 0.00 0.00 92 1015.3
20260508051515 5 262 0.0 0.0 0.00 0.00 0.00 92 1015.2
20260508051008 5 262 0.0 0.0 0.00 0.00 0.00 92 1015.3
20260508050601 5 262 0.0 0.0 0.00 0.00 0.00 92 1015.2
20260508050022 5 262 0.0 0.0 0.00 0.00 0.00 91 1015.3
20260508045516 5 262 0.0 0.0 0.00 0.00 0.00 91 1015.3
20260508045003 5 262 0.0 0.0 0.00 0.00 0.00 91 1015.2
20260508044523 5 262 0.0 0.0 0.00 0.00 0.00 91 1015.3
20260508044014 5 262 0.0 0.0 0.00 0.00 0.00 91 1015.3
20260508043509 5 262 0.0 0.0 0.00 0.00 0.00 91 1015.3
20260508043043 5 262 0.0 0.0 0.00 0.00 0.00 91 1015.3
20260508042525 5 262 0.0 0.0 0.00 0.00 0.00 91 1015.3
20260508042018 5 262 0.0 0.0 0.00 0.00 0.00 91 1015.3
20260508041537 5 262 0.0 0.0 0.00 0.00 0.00 91 1015.2
20260508041030 5 262 0.0 0.0 0.00 0.00 0.00 90 1015.1
20260508040523 5 262 0.0 0.0 0.00 0.00 0.00 90 1015.1
20260508040037 5 262 0.0 0.0 0.00 0.00 0.00 90 1015.1
20260508035531 5 262 0.0 0.0 0.00 0.00 0.00 90 1015.2
20260508035024 5 262 0.0 0.0 0.00 0.00 0.00 89 1015.1
20260508034546 5 262 0.0 0.0 0.00 0.00 0.00 89 1015.2
20260508034038 6 262 0.0 0.0 0.00 0.00 0.00 89 1015.2
20260508033533 6 262 0.0 0.0 0.00 0.00 0.00 88 1015.2
20260508033052 6 262 0.0 0.0 0.00 0.00 0.00 88 1015.3
20260508032543 6 262 0.0 0.0 0.00 0.00 0.00 88 1015.2
20260508032040 6 262 0.0 0.0 0.00 0.00 0.00 88 1015.2
20260508031558 6 262 0.0 0.0 0.00 0.00 0.00 87 1015.1
20260508031048 6 262 0.0 0.0 0.00 0.00 0.00 86 1015.2
20260508030541 6 262 0.0 0.0 0.00 0.00 0.00 86 1015.2
20260508030103 6 262 0.0 0.0 0.00 0.00 0.00 86 1015.3
20260508025552 6 262 0.0 0.0 0.00 0.00 0.00 85 1015.3
20260508025042 6 262 0.0 0.0 0.00 0.00 0.00 85 1015.3
20260508024500 6 262 0.0 0.0 0.00 0.00 0.00 84 1015.3
20260508024054 7 262 0.0 0.0 0.00 0.00 0.00 84 1015.2
20260508023545 7 262 0.0 0.0 0.00 0.00 0.00 84 1015.1
20260508023009 7 262 0.0 0.0 0.00 0.00 0.00 83 1015.0
20260508022600 7 262 0.0 0.0 0.00 0.00 0.00 83 1015.1
20260508022054 7 262 0.0 0.0 0.00 0.00 0.00 83 1015.1
20260508021532 7 262 0.0 0.0 0.00 0.00 0.00 82 1015.0
20260508021020 7 262 0.0 0.0 0.00 0.00 0.00 80 1015.0
20260508020510 7 262 0.0 0.0 0.00 0.00 0.00 80 1015.1
20260508020031 7 262 0.0 0.0 0.00 0.00 0.00 78 1015.2
20260508015524 7 262 0.0 0.0 0.00 0.00 0.00 77 1015.1
20260508015017 8 262 0.0 0.0 0.00 0.00 0.00 77 1015.1
20260508014540 8 262 0.0 0.0 0.00 0.00 0.00 76 1015.0
20260508014034 8 262 0.0 0.0 0.00 0.00 0.00 74 1015.1
20260508013526 8 262 0.0 0.0 0.00 0.00 0.00 73 1015.0
20260508013048 8 262 0.0 0.0 0.00 0.00 0.00 73 1015.0
20260508012541 8 262 0.0 0.0 0.00 0.00 0.00 72 1014.9
20260508012032 9 262 0.0 0.0 0.00 0.00 0.00 72 1014.8
20260508011555 9 262 0.0 0.0 0.00 0.00 0.00 70 1014.8
20260508011044 10 262 0.0 0.0 0.00 0.00 0.00 71 1014.7
20260508010537 10 262 0.0 0.0 0.00 0.00 0.00 72 1014.7
20260508010057 10 262 0.0 0.0 0.00 0.00 0.00 71 1014.8
20260508005548 10 262 0.0 0.0 0.00 0.00 0.00 68 1014.6
20260508005041 10 262 0.0 0.0 0.00 0.00 0.00 68 1014.7
20260508004501 10 262 0.0 0.0 0.00 0.00 0.00 70 1014.6
20260508004054 11 262 0.0 0.0 0.00 0.00 0.00 69 1014.5
20260508003544 11 262 0.0 0.0 0.00 0.00 0.00 69 1014.5
20260508003004 11 262 0.0 0.0 0.00 0.00 0.00 68 1014.5
20260508002558 11 262 0.0 0.0 0.00 0.00 0.00 66 1014.5
20260508002050 11 262 0.0 0.0 0.00 0.00 0.00 66 1014.2
20260508001516 11 262 0.0 0.0 0.00 0.00 0.00 67 1014.2
20260508001004 12 262 0.0 0.0 0.00 0.00 0.00 68 1014.2
20260508000602 12 262 0.0 0.0 0.00 0.00 0.00 68 1014.2
20260508000019 12 262 0.0 0.0 0.00 0.00 0.00 67 1014.2
20260507235511 12 262 0.0 0.0 0.00 0.00 0.00 64 1014.2
20260507235004 13 200 0.0 0.0 0.00 0.00 0.00 62 1014.1
20260507234524 13 200 0.0 0.0 0.00 0.00 0.00 61 1014.1
20260507234016 13 200 0.0 1.6 0.00 0.00 0.00 61 1014.1
20260507233508 14 79 0.0 1.6 0.00 0.00 0.00 54 1014.2
20260507233036 15 78 0.0 1.6 0.00 0.00 0.00 56 1014.1
20260507232522 15 173 0.0 1.6 0.00 0.00 0.00 49 1014.1
20260507232017 16 255 0.0 6.4 0.00 0.00 0.00 50 1014.1
20260507231552 16 255 0.0 6.4 0.00 0.00 0.00 39 1014.1
20260507231038 17 293 0.0 6.4 0.00 0.00 0.00 46 1014.1
20260507230532 17 290 0.0 1.6 0.00 0.00 0.00 45 1014.1
20260507230002 17 101 0.0 1.6 0.00 0.00 0.00 40 1014.2
20260507225555 17 69 0.0 3.2 0.00 0.00 0.00 44 1014.2
20260507225051 17 52 0.0 4.8 0.00 0.00 0.00 40 1014.1
20260507224508 17 126 0.0 4.8 0.00 0.00 0.00 44 1014.2
20260507224001 17 136 0.0 1.6 0.00 0.00 0.00 41 1014.1
20260507223554 17 2 0.0 6.4 0.00 0.00 0.00 45 1014.2
20260507223013 17 242 0.0 1.6 0.00 0.00 0.00 39 1014.2
20260507222504 17 320 0.0 3.2 0.00 0.00 0.00 42 1014.3
20260507222059 17 288 0.0 3.2 0.00 0.00 0.00 39 1014.2
20260507221518 18 27 0.0 4.8 0.00 0.00 0.00 38 1014.3
20260507221015 18 82 1.6 8.0 0.00 0.00 0.00 38 1014.3